This is the latest recevied weather packets stored in our database for station/object W4BOD. If no packets are shown the sender has not sent any weather packets the latest 10 day(s).
| Time | Temp. | Humidity | Pressure | Rain* | Wind** | Luminosity | Snow |
|---|---|---|---|---|---|---|---|
| 1777934616 | 26.67° C | 41% | 1010.1 hPa | 0 mm | - | 175 W/m² | - |
| 1777934312 | 27.22° C | 40% | 1010.3 hPa | 0 mm | - | 193 W/m² | - |
| 1777934008 | 27.22° C | 40% | 1010.3 hPa | 0 mm | - | 211 W/m² | - |
| 1777933704 | 27.22° C | 40% | 1010 hPa | 0 mm | - | 159 W/m² | - |
| 1777933401 | 27.22° C | 42% | 1010.1 hPa | 0 mm | - | 246 W/m² | - |
| 1777933100 | 27.22° C | 45% | 1010.2 hPa | 0 mm | - | 261 W/m² | - |
| 1777932796 | 27.22° C | 42% | 1010.1 hPa | 0 mm | - | 283 W/m² | - |
| 1777932493 | 27.22° C | 42% | 1010 hPa | 0 mm | - | 304 W/m² | - |
| 1777932190 | 27.22° C | 41% | 1010.2 hPa | 0 mm | - | 321 W/m² | - |
| 1777931888 | 27.22° C | 44% | 1009.9 hPa | 0 mm | - | 342 W/m² | - |
| 1777931584 | 26.67° C | 43% | 1010 hPa | 0 mm | - | 363 W/m² | - |
| 1777931280 | 27.22° C | 42% | 1009.9 hPa | 0 mm | - | 160 W/m² | - |
| 1777930976 | 27.22° C | 43% | 1009.9 hPa | 0 mm | - | 395 W/m² | - |
| 1777930673 | 27.22° C | 42% | 1010 hPa | 0 mm | - | 407 W/m² | - |
| 1777930369 | 27.22° C | 41% | 1009.8 hPa | 0 mm | - | 425 W/m² | - |
| 1777930067 | 27.22° C | 42% | 1010.1 hPa | 0 mm | - | 303 W/m² | - |
| 1777929763 | 27.78° C | 41% | 1009.9 hPa | 0 mm | - | 100 W/m² | - |
| 1777929461 | 27.78° C | 41% | 1009.9 hPa | 0 mm | - | 99 W/m² | - |
| 1777929156 | 27.78° C | 42% | 1009.9 hPa | 0 mm | - | 113 W/m² | - |
| 1777928854 | 27.78° C | 41% | 1009.8 hPa | 0 mm | - | 123 W/m² | - |
| 1777928551 | 27.22° C | 44% | 1009.8 hPa | 0 mm | - | 120 W/m² | - |
| 1777928248 | 27.22° C | 42% | 1009.9 hPa | 0 mm | - | 373 W/m² | - |
| 1777927946 | 27.78° C | 43% | 1010.2 hPa | 0 mm | - | 202 W/m² | - |
| 1777927644 | 27.78° C | 41% | 1010 hPa | 0 mm | - | 138 W/m² | - |
| 1777927342 | 27.78° C | 41% | 1010 hPa | 0 mm | - | 596 W/m² | - |
* Rain latest hour (hover to see other rain measurements)
** Current wind speed in m/s (hover to see current wind gust speed)